Regional Weather Roundup
Issued by NWS Goodland, KS

Home | Current Version | Previous Version | Text Only | Print | Product List | Glossary Off
Versions: 1 2 3 4 5 6 7 8 9 10 11 12 13 14 15 16 17 18 19 20 21 22 23 24 25 26 27 28 29 30 31 32 33 34 35 36 37 38 39 40 41 42 43 44 45 46 47 48 49 50

000
ASUS43 KGLD 180059
RWRGLD

GOODLAND FORECAST AREA HOURLY WEATHER ROUNDUP
NATIONAL WEATHER SERVICE GOODLAND KS
600 PM MST SUN DEC 17 2017

...OFFICIAL OBSERVATIONS...

CITY           SKY/WX    TMP DP  RH WIND       PRES   REMARKS
GOODLAND KS    CLOUDY    30  23  75 SW6       29.97R
HILL CITY KS   CLOUDY    32  26  78 CALM      30.01R
IMPERIAL NEB   CLEAR     27  24  89 SW8       29.95R
MCCOOK NEB     CLEAR     34  29  82 SW3       29.97R
AKRON CO       CLEAR     28  22  78 SW9       29.93R
BURLINGTON CO  CLOUDY    26  22  84 SW6       29.96R
LIMON CO       CLOUDY    28  21  75 S7        29.93S
$$

...UNOFFICIAL OBSERVATIONS...

CITY           SKY/WX    TMP DP  RH WIND       PRES   REMARKS
LENORA KS        N/A     35  32  89 CALM        N/A
NORTON KS      CLEAR     30  21  69 CALM      29.97
SHARON SPRINGS   N/A     29  22  76 CALM        N/A
TRENTON NEB      N/A     31  32 100 CALM        N/A
KIT CARSON CO    N/A     30  22  73 CALM        N/A
YUMA CO        FAIR      21  19  93 SW7       29.95R
$$



USA.gov is the U.S. government's official web portal to all federal, state and local government web resources and services.